Spokane Fairchild, WA
on Wednesday, January 30, 2013

Wednesday
Previous Day Next Day
Daily Summary
 ActualAverage (KGEG)Record (KGEG)
Temperature
Mean Temperature °F 31°F  
Max Temperature 38°F 36°F 59°F (1971)
Min Temperature 28°F 26°F -19°F (1950)
Degree Days
Heating Degree Days 32 34  
Month to date heating degree days 1065  
Since 1 July heating degree days 3899  
Cooling Degree Days 0 0  
Month to date cooling degree days 0  
Year to date cooling degree days 0  
Moisture
Dew Point 33°F   
Average Humidity 100    
Maximum Humidity 100    
Minimum Humidity 100    
Precipitation
Precipitation 0.00 in 0.05 in 0.46 in (1952)
Month to date precipitation 1.74  
Year to date precipitation 1.74  
Snow
Snow 0.00 in 0.20 in 5.00 in (1969)
Month to date snowfall 11.1  
Since 1 July snowfall 33.2  
Snow Depth 3.00 in   
Wind
Wind Speed 9 mph   
Max Wind Speed 16 mph   
Max Gust Speed mph   
Visibility 7 miles   
Events Fog   

Key: T is trace of precipitation, MM is missing value
Source: NWS Daily Summary
Time(PST)TemperatureDew PointHumidity Pressure Visibility Wind DirectionWind SpeedGust SpeedPrecipitationEvents Conditions
12:58 AM 33.3°F 33.3°F 100% 30.16 in 10.0 miles SW 10.4 mph - N/A   Overcast
1:08 AM 32.0°F 32.0°F 100% 30.08 in 10.0 miles SW 9.2 mph - N/A   Overcast
1:18 AM 32.0°F 32.0°F 100% 30.09 in 10.0 miles SW 9.2 mph - N/A   Overcast
1:38 AM 32.0°F 32.0°F 100% 30.08 in 10.0 miles SSW 10.4 mph - N/A   Overcast
1:58 AM 32.9°F 32.9°F 100% 30.17 in 10.0 miles SSW 10.4 mph - N/A   Overcast
1:59 AM 32.0°F 32.0°F 100% 30.09 in 10.0 miles SSW 11.5 mph - N/A   Overcast
2:04 AM 32.0°F 32.0°F 100% 30.08 in 10.0 miles SSW 12.7 mph - N/A   Overcast
2:07 AM 32.0°F 32.0°F 100% 30.08 in 10.0 miles SSW 12.7 mph - N/A   Overcast
2:17 AM 32.0°F 32.0°F 100% 30.08 in 10.0 miles SSW 12.7 mph - N/A   Mostly Cloudy
2:37 AM 32.0°F 32.0°F 100% 30.07 in 10.0 miles SSW 12.7 mph - N/A   Mostly Cloudy
2:40 AM 32.0°F 32.0°F 100% 30.07 in 10.0 miles SSW 12.7 mph - N/A   Mostly Cloudy
2:44 AM 32.0°F 32.0°F 100% 30.07 in 10.0 miles SSW 12.7 mph - N/A   Mostly Cloudy
2:47 AM 32.0°F 32.0°F 100% 30.08 in 10.0 miles SSW 10.4 mph - N/A   Mostly Cloudy
2:58 AM 32.5°F 32.5°F 100% 30.16 in 10.0 miles SW 10.4 mph - 0.00 in   Overcast
3:08 AM 32.0°F 32.0°F 100% 30.08 in 10.0 miles SSW 10.4 mph - N/A   Overcast
3:33 AM 32.0°F 32.0°F 100% 30.08 in 10.0 miles SW 9.2 mph - N/A   Mostly Cloudy
3:36 AM 32.0°F 32.0°F 100% 30.08 in 10.0 miles SW 9.2 mph - N/A   Mostly Cloudy
3:51 AM 32.0°F 32.0°F 100% 30.07 in 10.0 miles SSW 13.8 mph - N/A   Mostly Cloudy
3:58 AM 31.8°F 31.8°F 100% 30.15 in 10.0 miles SW 10.4 mph - 0.00 in   Overcast
4:02 AM 32.0°F 32.0°F 100% 30.07 in 10.0 miles SW 10.4 mph - N/A   Overcast
4:18 AM 32.0°F 32.0°F 100% 30.07 in 10.0 miles SW 6.9 mph - N/A   Overcast
4:19 AM 32.0°F 32.0°F 100% 30.07 in 10.0 miles SW 6.9 mph - N/A   Overcast
4:21 AM 32.0°F 32.0°F 100% 30.07 in 10.0 miles SW 8.1 mph - N/A   Overcast
4:58 AM 30.9°F 30.9°F 100% 30.15 in 10.0 miles SSW 5.8 mph - 0.00 in   Overcast
4:59 AM 32.0°F 32.0°F 100% 30.07 in 10.0 miles SSW 6.9 mph - N/A   Overcast
5:04 AM 30.2°F 30.2°F 100% 30.07 in 10.0 miles SSW 9.2 mph - N/A   Overcast
5:09 AM 30.2°F 30.2°F 100% 30.07 in 10.0 miles SSW 8.1 mph - N/A   Overcast
5:29 AM 30.2°F 30.2°F 100% 30.07 in 10.0 miles SW 8.1 mph - N/A   Scattered Clouds
5:44 AM 30.2°F 30.2°F 100% 30.08 in 10.0 miles WSW 4.6 mph - N/A   Mostly Cloudy
5:58 AM 29.3°F 29.3°F 100% 30.17 in 10.0 miles WSW 5.8 mph - 0.00 in   Mostly Cloudy
6:17 AM 28.4°F 28.4°F 100% 30.08 in 10.0 miles SW 8.1 mph - N/A   Scattered Clouds
6:41 AM 28.4°F 28.4°F 100% 30.08 in 10.0 miles SW 8.1 mph - N/A   Partly Cloudy
6:49 AM 28.4°F 28.4°F 100% 30.08 in 10.0 miles SW 5.8 mph - N/A   Partly Cloudy
6:58 AM 28.4°F 28.4°F 100% 30.17 in 10.0 miles SW 4.6 mph - 0.00 in   Partly Cloudy
7:03 AM 28.4°F 28.4°F 100% 30.08 in 10.0 miles SW 4.6 mph - N/A   Mostly Cloudy
7:13 AM 30.2°F 30.2°F 100% 30.08 in 10.0 miles SSW 6.9 mph - N/A   Mostly Cloudy
7:23 AM 30.2°F 30.2°F 100% 30.08 in 10.0 miles SW 10.4 mph - N/A   Overcast
7:25 AM 30.2°F 30.2°F 100% 30.08 in 10.0 miles SW 9.2 mph - N/A   Overcast
7:58 AM 30.9°F 30.9°F 100% 30.18 in 10.0 miles SW 3.5 mph - 0.00 in   Overcast
8:58 AM 31.5°F 31.5°F 100% 30.20 in 10.0 miles SW 8.1 mph - N/A   Overcast
9:05 AM 32.0°F 32.0°F 100% 30.12 in 10.0 miles SW 8.1 mph - N/A   Overcast
9:09 AM 32.0°F 32.0°F 100% 30.12 in 10.0 miles WSW 4.6 mph - N/A   Overcast
9:48 AM 32.0°F 32.0°F 100% 30.13 in 7.0 miles SSW 11.5 mph - N/A   Overcast
9:58 AM 32.5°F 32.5°F 100% 30.21 in 4.0 miles SSW 9.2 mph - 0.00 in   Overcast
9:59 AM 32.0°F 32.0°F 100% 30.13 in 4.0 miles SSW 6.9 mph - N/A   Overcast
10:09 AM 32.0°F 32.0°F 100% 30.13 in 2.5 miles SSW 10.4 mph - N/A   Overcast
10:11 AM 32.0°F 32.0°F 100% 30.13 in 2.5 miles SSW 11.5 mph - N/A   Overcast
10:31 AM 32.0°F 32.0°F 100% 30.14 in 4.0 miles SSW 8.1 mph - N/A   Overcast
10:48 AM 32.0°F 32.0°F 100% 30.14 in 10.0 miles SSW 9.2 mph - N/A   Overcast
10:58 AM 33.3°F 33.3°F 100% 30.22 in 10.0 miles SW 9.2 mph - 0.00 in   Overcast
11:09 AM 33.8°F 33.8°F 100% 30.14 in 10.0 miles SSW 9.2 mph - N/A   Overcast
11:15 AM 33.8°F 33.8°F 100% 30.14 in 10.0 miles SSW 9.2 mph - N/A   Light Drizzle
11:24 AM 32.0°F 32.0°F 100% 30.14 in 10.0 miles SSW 6.9 mph - N/A   Overcast
11:58 AM 34.2°F 34.2°F 100% 30.21 in 10.0 miles SSW 8.1 mph - 0.00 in   Overcast
12:03 PM 33.8°F 33.8°F 100% 30.14 in 10.0 miles SSW 9.2 mph - N/A   Overcast
12:23 PM 35.6°F 35.6°F 100% 30.14 in 10.0 miles South 6.9 mph - N/A   Overcast
12:28 PM 35.6°F 35.6°F 100% 30.14 in 10.0 miles SSW 5.8 mph - N/A   Overcast
12:43 PM 37.4°F 37.4°F 100% 30.14 in 10.0 miles SSW 8.1 mph - N/A   Scattered Clouds
12:45 PM 37.4°F 37.4°F 100% 30.14 in 10.0 miles SSW 10.4 mph - N/A   Scattered Clouds
12:58 PM 36.9°F 36.9°F 100% 30.20 in 10.0 miles SW 11.5 mph - 0.00 in   Partly Cloudy
1:58 PM 37.0°F 37.0°F 100% 30.21 in 10.0 miles WSW 10.4 mph - 0.00 in   Light Drizzle
2:12 PM 37.4°F 37.4°F 100% 30.14 in 10.0 miles WSW 6.9 mph - N/A   Clear
2:58 PM 37.8°F 37.8°F 100% 30.22 in 10.0 miles WSW 6.9 mph - 0.00 in   Clear
3:58 PM 38.7°F 38.7°F 100% 30.23 in 10.0 miles WSW 5.8 mph - N/A   Clear
4:16 PM 37.4°F 37.4°F 100% 30.16 in 10.0 miles Calm Calm - N/A   Clear
4:26 PM 37.4°F 37.4°F 100% 30.16 in 10.0 miles South 3.5 mph - N/A   Clear
4:58 PM 33.8°F 33.8°F 100% 30.24 in 10.0 miles SW 4.6 mph - 0.00 in   Clear
5:37 PM 35.6°F 35.6°F 100% 30.17 in 10.0 miles East 4.6 mph - N/A   Clear
5:58 PM 33.4°F 33.4°F 100% 30.25 in 10.0 miles South 6.9 mph - 0.00 in   Clear
6:01 PM 32.0°F 32.0°F 100% 30.18 in 10.0 miles Variable 1.2 mph - N/A   Clear
6:08 PM 32.0°F 32.0°F 100% 30.17 in 10.0 miles South 6.9 mph - N/A   Clear
6:25 PM 32.0°F 32.0°F 100% 30.18 in 10.0 miles SSW 5.8 mph - N/A   Clear
6:58 PM 34.3°F 34.3°F 100% 30.26 in 10.0 miles East 1.2 mph - 0.00 in   Overcast
7:15 PM 32.0°F 32.0°F 100% 30.18 in 10.0 miles SSW 4.6 mph - N/A   Overcast
7:45 PM 32.0°F 32.0°F 100% 30.18 in 10.0 miles SSE 1.2 mph - N/A   Mostly Cloudy
7:46 PM 32.0°F 32.0°F 100% 30.18 in 10.0 miles SSE 1.2 mph - N/A   Mostly Cloudy
7:58 PM 33.8°F 33.8°F 100% 30.25 in 4.0 miles SSW 3.5 mph - 0.00 in   Overcast
8:00 PM 33.8°F 33.8°F 100% 30.18 in 3.0 miles SSW 3.5 mph - N/A   Overcast
8:05 PM 33.8°F 33.8°F 100% 30.18 in 2.5 miles SW 3.5 mph - N/A   Overcast
8:10 PM 33.8°F 33.8°F 100% 30.18 in 1.8 miles SW 3.5 mph - N/A   Overcast
8:15 PM 33.8°F 33.8°F 100% 30.18 in 1.2 miles SSW 5.8 mph - N/A   Overcast
8:20 PM 33.8°F 33.8°F 100% 30.18 in 1.0 miles SSW 6.9 mph - N/A   Overcast
8:25 PM 33.8°F 33.8°F 100% 30.18 in 1.8 miles SSW 5.8 mph - N/A   Overcast
8:30 PM 32.0°F 32.0°F 100% 30.18 in 5.0 miles South 5.8 mph - N/A   Overcast
8:48 PM 33.8°F 33.8°F 100% 30.18 in 10.0 miles South 8.1 mph - N/A   Mostly Cloudy
8:58 PM 33.6°F 33.6°F 100% 30.26 in 9.0 miles South 11.5 mph - 0.00 in   Partly Cloudy
9:00 PM 32.0°F 32.0°F 100% 30.18 in 7.0 miles South 11.5 mph - N/A   Partly Cloudy
9:05 PM 33.8°F 33.8°F 100% 30.17 in 2.5 miles SSW 12.7 mph - N/A   Partly Cloudy
9:10 PM 32.0°F 32.0°F 100% 30.17 in 1.0 miles SSW 13.8 mph - N/A   Clear
9:13 PM 32.0°F 32.0°F 100% 30.17 in 1.0 miles SSW 15.0 mph - N/A   Clear
9:15 PM 32.0°F 32.0°F 100% 30.17 in 0.8 miles SSW 16.1 mph - N/A   Mist
9:19 PM 32.0°F 32.0°F 100% 30.17 in 0.8 miles SSW 16.1 mph - N/A   Mist
9:24 PM 32.0°F 32.0°F 100% 30.17 in 0.8 miles SSW 13.8 mph - N/A   Mist
9:29 PM 32.0°F 32.0°F 100% 30.17 in 0.8 miles SSW 12.7 mph - N/A   Clear
9:30 PM 32.0°F 32.0°F 100% 30.17 in 0.8 miles SSW 12.7 mph - N/A   Clear
9:40 PM 32.0°F 32.0°F 100% 30.17 in 1.0 miles SSW 11.5 mph - N/A   Partly Cloudy
9:41 PM 32.0°F 32.0°F 100% 30.18 in 1.0 miles SSW 10.4 mph - N/A   Partly Cloudy
9:46 PM 32.0°F 32.0°F 100% 30.18 in 1.2 miles SSW 8.1 mph - N/A   Scattered Clouds
9:51 PM 32.0°F 32.0°F 100% 30.18 in 1.0 miles South 5.8 mph - N/A   Scattered Clouds
9:56 PM 32.0°F 32.0°F 100% 30.18 in 7.0 miles South 12.7 mph - N/A   Partly Cloudy
9:58 PM 32.0°F 32.0°F 100% 30.26 in 8.0 miles South 12.7 mph - 0.00 in   Partly Cloudy
9:59 PM 32.0°F 32.0°F 100% 30.18 in 10.0 miles South 12.7 mph - N/A   Partly Cloudy
10:05 PM 32.0°F 32.0°F 100% 30.18 in 0.8 miles SSE 6.9 mph - N/A   Mist
10:10 PM 32.0°F 32.0°F 100% 30.18 in 0.5 miles SSE 6.9 mph - N/A Fog Fog
10:15 PM 32.0°F 32.0°F 100% 30.18 in 0.5 miles South 6.9 mph - N/A Fog Light Freezing Fog
10:25 PM 32.0°F 32.0°F 100% 30.17 in 0.5 miles South 6.9 mph - N/A Fog Fog
10:45 PM 32.0°F 32.0°F 100% 30.17 in 0.5 miles SSW 8.1 mph - N/A Fog Fog
10:58 PM 32.5°F 32.5°F 100% 30.25 in 0.5 miles SSW 9.2 mph - 0.00 in Fog Fog
10:59 PM 32.0°F 32.0°F 100% 30.17 in 0.5 miles SSW 9.2 mph - N/A Fog Fog
11:09 PM 32.0°F 32.0°F 100% 30.18 in 0.8 miles SSW 8.1 mph - N/A   Mist
11:14 PM 32.0°F 32.0°F 100% 30.18 in 0.8 miles SSW 9.2 mph - N/A   Mist
11:17 PM 32.0°F 32.0°F 100% 30.18 in 0.8 miles South 8.1 mph - N/A   Mist
11:27 PM 32.0°F 32.0°F 100% 30.19 in 0.5 miles SSW 8.1 mph - N/A Fog Fog
11:32 PM 32.0°F 32.0°F 100% 30.19 in 0.5 miles SSW 6.9 mph - N/A Fog Fog
11:42 PM 32.0°F 32.0°F 100% 30.20 in 0.8 miles SSW 5.8 mph - N/A   Overcast
11:47 PM 32.0°F 32.0°F 100% 30.20 in 1.2 miles SSW 8.1 mph - N/A   Overcast
11:52 PM 32.0°F 32.0°F 100% 30.20 in 2.0 miles SSW 6.9 mph - N/A   Overcast
11:58 PM 32.5°F 32.5°F 100% 30.27 in 2.5 miles SSW 6.9 mph - 0.00 in   Overcast
Moon Phase
Jan. 30 Feb. 03 Feb. 10 Feb. 17 Feb. 25
Sunrise:07:19 AM (PST) Moon Rise:09:15 PM (PST)1/30
Sunset:04:49 PM (PST) Moon Set:08:29 AM (PST)1/30

Copyright © 2014 The Weather Underground, Inc.